KC7YCE Weather Reports


time (UTC)temp
C
wind
direction
speed
KPH
gust
KPH
rain 1hr
cm
rain 24hr
cm
rain mn
cm
humidity
%
barometer
mb
20260508130242 0 142 3.2 8.0 0.00 0.00 0.00 79 1022.9
20260508125242 0 155 4.8 6.4 0.00 0.00 0.00 79 1022.9
20260508124242 0 153 1.6 4.8 0.00 0.00 0.00 80 1022.8
20260508123242 0 135 0.0 4.8 0.00 0.00 0.00 81 1022.8
20260508122242 0 152 0.0 4.8 0.00 0.00 0.00 81 1022.9
20260508120213 0 139 0.0 4.8 0.00 0.00 0.00 80 1022.8
20260508115213 0 148 1.6 4.8 0.00 0.00 0.00 80 1022.7
20260508114142 0 134 1.6 4.8 0.00 0.00 0.00 80 1022.7
20260508104112 0 141 1.6 4.8 0.00 0.00 0.00 80 1022.5
20260508102112 0 153 3.2 4.8 0.00 0.00 0.00 80 1022.6
20260508094111 0 135 1.6 6.4 0.00 0.00 0.00 80 1022.4
20260508093112 0 148 1.6 3.2 0.00 0.00 0.00 80 1022.3
20260508092046 0 136 0.0 4.8 0.00 0.00 0.00 80 1022.4
20260508085011 0 155 0.0 0.0 0.00 0.00 0.00 80 1022.4
20260508084011 0 124 0.0 0.0 0.00 0.00 0.00 80 1022.5
20260508083011 0 124 0.0 0.0 0.00 0.00 0.00 80 1022.4
20260508081011 1 147 0.0 1.6 0.00 0.00 0.00 78 1022.5
20260508080011 1 152 0.0 1.6 0.00 0.00 0.00 77 1022.5
20260508074941 1 133 0.0 1.6 0.00 0.00 0.00 77 1022.6
20260508071911 1 149 0.0 4.8 0.00 0.00 0.00 76 1022.6
20260508070911 2 150 0.0 4.8 0.00 0.00 0.00 75 1022.5
20260508065911 2 137 1.6 1.6 0.00 0.00 0.00 75 1022.5
20260508064910 2 150 1.6 4.8 0.00 0.00 0.00 75 1022.5
20260508063911 2 162 3.2 4.8 0.00 0.00 0.00 75 1022.5
20260508062911 2 128 0.0 3.2 0.00 0.00 0.00 74 1022.4
20260508061910 2 146 0.0 4.8 0.00 0.00 0.00 74 1022.3
20260508060910 2 128 0.0 3.2 0.00 0.00 0.00 74 1022.3
20260508055910 2 139 0.0 3.2 0.00 0.00 0.00 73 1022.3
20260508054840 2 150 0.0 4.8 0.00 0.00 0.00 73 1022.3
20260508053840 2 138 0.0 4.8 0.00 0.00 0.00 73 1022.3
20260508052840 3 126 1.6 3.2 0.00 0.00 0.00 72 1022.3
20260508051810 3 138 0.0 3.2 0.00 0.00 0.00 72 1022.3
20260508050740 3 129 1.6 3.2 0.00 0.00 0.00 72 1022.3
20260508045710 3 155 0.0 1.6 0.00 0.00 0.00 71 1022.3
20260508044710 3 155 0.0 3.2 0.00 0.00 0.00 71 1022.2
20260508043710 3 143 0.0 1.6 0.00 0.00 0.00 70 1022.3
20260508040712 4 150 0.0 3.2 0.00 0.00 0.00 69 1022.3
20260508035710 4 150 0.0 1.6 0.00 0.00 0.00 70 1022.2
20260508034710 4 295 0.0 0.0 0.00 0.00 0.00 68 1022.1
20260508033710 5 295 0.0 0.0 0.00 0.00 0.00 65 1022.0
20260508032710 6 295 0.0 0.0 0.00 0.00 0.00 63 1022.0
20260508031640 6 295 0.0 0.0 0.00 0.00 0.00 59 1021.9
20260508030639 7 295 0.0 0.0 0.00 0.00 0.00 57 1021.8
20260508025640 8 295 0.0 0.0 0.00 0.00 0.00 55 1021.7
20260508024639 8 295 0.0 3.2 0.00 0.00 0.00 52 1021.5
20260508023640 9 295 0.0 3.2 0.00 0.00 0.00 49 1021.3
20260508022639 10 282 0.0 0.0 0.00 0.00 0.00 48 1021.2
20260508021639 10 291 0.0 4.8 0.00 0.00 0.00 47 1021.2
20260508020639 10 269 1.6 1.6 0.00 0.00 0.00 47 1021.3
20260508015639 10 274 0.0 1.6 0.00 0.00 0.00 47 1021.4
20260508014639 11 309 0.0 3.2 0.00 0.00 0.00 48 1021.3
20260508013639 11 81 0.0 3.2 0.00 0.00 0.00 46 1021.2
20260508012639 11 172 0.0 3.2 0.00 0.00 0.00 45 1021.0
20260508011639 11 269 1.6 6.4 0.00 0.00 0.00 46 1021.2
20260508010641 12 271 1.6 6.4 0.00 0.00 0.00 44 1021.3
20260508003608 13 273 0.0 4.8 0.00 0.00 0.00 42 1021.6
20260507235438 11 293 0.0 1.6 0.00 0.00 0.00 43 1021.6
20260507234438 11 290 0.0 4.8 0.00 0.00 0.00 41 1021.6
20260507233438 11 276 0.0 4.8 0.00 0.00 0.00 40 1021.5
20260507231408 12 269 3.2 8.0 0.00 0.00 0.00 38 1021.5
20260507230408 13 219 3.2 8.0 0.00 0.00 0.00 37 1021.5
20260507225409 14 287 0.0 3.2 0.00 0.00 0.00 35 1021.4
20260507224408 13 274 4.8 8.0 0.00 0.00 0.00 35 1021.6
20260507222308 13 283 3.2 6.4 0.00 0.00 0.00 37 1021.6
20260507221238 13 274 4.8 6.4 0.00 0.00 0.00 40 1021.5
20260507220238 12 266 1.6 6.4 0.00 0.00 0.00 41 1021.7
20260507215238 12 304 4.8 9.7 0.00 0.00 0.00 42 1021.8
20260507214208 12 347 1.6 9.7 0.00 0.00 0.00 43 1021.9
20260507213208 12 300 4.8 9.7 0.00 0.00 0.00 40 1022.0
20260507212208 12 316 4.8 11.3 0.00 0.00 0.00 41 1022.1
20260507211208 12 309 4.8 11.3 0.00 0.00 0.00 44 1022.0
20260507210208 12 356 8.0 11.3 0.00 0.00 0.00 41 1022.1
20260507204138 12 259 1.6 4.8 0.00 0.00 0.00 42 1022.2
20260507201108 12 281 3.2 6.4 0.00 0.00 0.00 42 1022.3
20260507200108 12 250 1.6 6.4 0.00 0.00 0.00 44 1022.4
20260507194037 13 259 3.2 9.7 0.00 0.00 0.00 42 1022.4
20260507193038 13 255 3.2 9.7 0.00 0.00 0.00 45 1022.3
20260507190007 12 268 4.8 4.8 0.00 0.00 0.00 45 1022.4
20260507185009 13 323 4.8 8.0 0.00 0.00 0.00 43 1022.6
20260507184007 14 269 6.4 8.0 0.00 0.00 0.00 41 1022.5
20260507183007 13 247 4.8 8.0 0.00 0.00 0.00 39 1022.5
20260507182007 13 242 0.0 8.0 0.00 0.00 0.00 39 1022.6
20260507180007 13 207 0.0 8.0 0.00 0.00 0.00 42 1022.8
20260507175008 12 266 4.8 8.0 0.00 0.00 0.00 42 1022.8
20260507172940 12 276 3.2 4.8 0.00 0.00 0.00 44 1023.0
20260507171937 11 274 3.2 6.4 0.00 0.00 0.00 44 1023.0
20260507170937 11 302 4.8 6.4 0.00 0.00 0.00 43 1023.0
20260507165907 11 257 1.6 4.8 0.00 0.00 0.00 45 1023.1
20260507163907 11 323 1.6 8.0 0.00 0.00 0.00 43 1023.3
20260507162907 10 272 4.8 8.0 0.00 0.00 0.00 44 1023.4
20260507161907 10 264 3.2 8.0 0.00 0.00 0.00 47 1023.4
20260507160837 10 281 1.6 8.0 0.00 0.00 0.00 47 1023.4
20260507154837 10 274 4.8 9.7 0.00 0.00 0.00 46 1023.5
20260507152427 8 287 0.0 4.8 0.00 0.00 0.00 55 1023.7
20260507151836 8 287 0.0 4.8 0.00 0.00 0.00 55 1023.7
20260507150836 7 275 0.0 4.8 0.00 0.00 0.00 57 1023.7
20260507145836 7 145 1.6 4.8 0.00 0.00 0.00 63 1023.8
20260507144836 6 158 0.0 3.2 0.00 0.00 0.00 66 1023.9
20260507143837 5 140 0.0 3.2 0.00 0.00 0.00 69 1023.9
20260507141837 4 139 0.0 3.2 0.00 0.00 0.00 72 1023.8
20260507140836 3 168 3.2 3.2 0.00 0.00 0.00 77 1023.9
20260507135836 2 141 0.0 3.2 0.00 0.00 0.00 77 1024.0
20260507134836 2 160 1.6 4.8 0.00 0.00 0.00 76 1024.0
20260507133835 2 145 1.6 3.2 0.00 0.00 0.00 78 1024.0
20260507131805 1 166 1.6 3.2 0.00 0.00 0.00 78 1023.9